Location: Marcé
(47.5801°N, 0.3280°W)
Time: 19:01:28
(UTC+01:00)

Tiros 1 despin weight - Visible Passes

Search period start: 30 November 2021 00:00
Search period end: 10 December 2021 00:00
Orbit: 593 x 641 km, 48.2° (Epoch: 29 November)

Date Brightness Start Highest point End Pass type
(mag) Time Alt. Az. Time Alt. Az. Time Alt. Az.
30 Nov ? 18:42:07 10° W 18:46:32 84° N 18:48:56 27° E visible
30 Nov ? 20:23:41 10° W 20:25:59 28° W 20:25:59 28° W visible
01 Dec ? 18:58:18 10° W 19:02:43 84° SSW 19:04:32 35° ESE visible
01 Dec ? 20:39:58 10° W 20:41:34 20° W 20:41:34 20° W visible
02 Dec ? 19:14:29 10° WNW 19:18:51 64° SSW 19:20:14 40° SE visible
02 Dec ? 20:56:33 10° W 20:57:17 13° W 20:57:17 13° W visible
03 Dec ? 17:49:06 10° W 17:53:32 88° NNE 17:57:58 10° E visible
03 Dec ? 19:30:42 10° W 19:34:53 43° SSW 19:36:02 35° S visible
04 Dec ? 18:05:17 10° W 18:09:41 76° SSW 18:14:07 10° ESE visible
04 Dec ? 19:47:05 10° W 19:50:50 27° SW 19:52:00 24° S visible
05 Dec ? 18:21:28 10° W 18:25:47 55° SSW 18:30:06 10° SE visible
05 Dec ? 20:03:52 10° W 20:06:38 16° SW 20:08:11 14° SSW visible
06 Dec ? 18:37:43 10° W 18:41:46 36° SSW 18:45:50 10° SE visible
07 Dec ? 18:54:13 10° W 18:57:40 23° SW 19:01:06 10° SSE visible
08 Dec ? 19:11:24 10° WSW 19:13:26 13° SW 19:15:28 10° SSW visible
09 Dec ? 17:44:46 10° W 17:48:38 30° SSW 17:52:29 10° SSE visible
